Terminal Aerodrome Forecast
Issued by NWS Tulsa, OK

Home | Current Version | Previous Version | Text Only | Print | Product List | Glossary On
Versions: 1 2 3 4 5 6 7 8 9 10 11 12 13 14 15 16
000
FTUS44 KTSA 290500
TAFTUL
TAF
KTUL 290520Z 2906/3006 15006KT P6SM SCT035 BKN250
     FM290700 17009KT P6SM -TSRA OVC040CB
     FM291800 21006KT P6SM OVC250
     FM300000 16007KT P6SM OVC100 PROB30 3000/3006 -TSRA BKN040CB=

USA.gov is the U.S. government's official web portal to all federal, state and local government web resources and services.